Weather History for Clemson, SC

Change the Weather History Date:

Thursday, January 31, 2013

  Actual Average Record
Temperature  
Mean Temperature 44 °F -  
Max Temperature 50 °F 55 °F 78 °F (1975)
Min Temperature 37 °F 29 °F 5 °F (1966)
Degree Days  
Heating Degree Days 22    
Moisture  
Dew Point 23 °F    
Average Humidity 46    
Maximum Humidity 74    
Minimum Humidity 26    
Precipitation  
Precipitation 0.04 in - - ()
Sea Level Pressure  
Sea Level Pressure 29.95 in    
Wind  
Wind Speed 16 mph (West)    
Max Wind Speed 28 mph    
Max Gust Speed 38 mph    
Visibility 10 miles    
Events Rain    
Averages and records for this station are not official NWS values.
T = Trace of Precipitation, MM = Missing Value Source: NWS Daily Summary

Daily Weather History Graph

Daily Weather History Graph

Search for Another Location

Airport:

Trip Planner

Search our weather history database for the weather conditions in past years. The results will help you decide how hot, cold, wet, or windy it might be!

Date:

Astronomy

Jan. 31, 2013 Rise Set
Actual Time 7:30 AM EST 6:00 PM EST
Civil Twilight 7:03 AM EST 6:26 PM EST
Nautical Twilight 6:33 AM EST 6:56 PM EST
Astronomical Twilight 6:03 AM EST 7:26 PM EST
Moon 10:45 PM EST (1/31) 9:43 AM EST (1/31)
Length of Visible Light 11h 22m
Length of Day
10h 29m
Waning Gibbous, 80% of the Moon is Illuminated
Jan 31
Waning Gibbous
Feb 3
Last Quarter
Feb 10
New
Feb 17
First Quarter
Feb 25
Full

Hourly Weather History & Observations

Time (EST) Temp. Windchill Dew Point Humidity Pressure Visibility Wind Dir Wind Speed Gust Speed Precip Events Conditions
12:54 AM 48.0 °F - 39.9 °F 74% 29.66 in 10.0 mi WSW 16.1 mph 25.3 mph 0.01 in   Mostly Cloudy
1:07 AM 48.2 °F - 39.2 °F 71% 29.69 in 10.0 mi WNW 12.7 mph 29.9 mph 0.00 in Rain Light Rain
1:54 AM 45.0 °F 37.4 °F 36.0 °F 71% 29.72 in 10.0 mi West 18.4 mph 27.6 mph 0.01 in   Overcast
2:06 AM 44.6 °F 37.2 °F 35.6 °F 71% 29.74 in 10.0 mi WSW 17.3 mph 31.1 mph 0.00 in Rain Light Rain
2:54 AM 42.1 °F 34.2 °F 34.0 °F 73% 29.76 in 10.0 mi WNW 16.1 mph 21.9 mph 0.01 in Rain Light Rain
3:54 AM 41.0 °F 31.6 °F 27.0 °F 57% 29.81 in 10.0 mi West 20.7 mph 28.8 mph 0.00 in   Clear
4:54 AM 39.0 °F 27.6 °F 21.9 °F 50% 29.83 in 10.0 mi West 27.6 mph 38.0 mph 0.01 in   Clear
5:54 AM 39.0 °F 28.5 °F 21.0 °F 49% 29.87 in 10.0 mi West 23.0 mph 33.4 mph N/A   Clear
7:54 AM 37.9 °F 30.5 °F 19.0 °F 47% 29.95 in 10.0 mi WNW 11.5 mph 24.2 mph N/A   Clear
8:54 AM 39.0 °F 33.4 °F 21.9 °F 50% 29.98 in 10.0 mi WSW 8.1 mph - N/A   Clear
9:54 AM 41.0 °F 31.4 °F 19.9 °F 43% 29.99 in 10.0 mi West 21.9 mph 34.5 mph N/A   Clear
10:54 AM 43.0 °F 36.4 °F 19.9 °F 40% 30.01 in 10.0 mi West 12.7 mph 25.3 mph N/A   Clear
11:54 AM 46.9 °F - 19.9 °F 34% 30.00 in 10.0 mi West 20.7 mph 29.9 mph N/A   Clear
12:54 PM 48.0 °F - 18.0 °F 30% 30.00 in 10.0 mi West 12.7 mph 24.2 mph N/A   Clear
1:54 PM 48.9 °F - 17.1 °F 28% 29.99 in 10.0 mi West 23.0 mph 35.7 mph N/A   Clear
2:54 PM 50.0 °F - 16.0 °F 26% 30.01 in 10.0 mi West 25.3 mph 35.7 mph N/A   Clear
3:54 PM 50.0 °F - 17.1 °F 27% 30.03 in 10.0 mi West 17.3 mph 26.5 mph N/A   Clear
4:54 PM 48.9 °F - 17.1 °F 28% 30.03 in 10.0 mi West 19.6 mph 27.6 mph N/A   Clear
5:54 PM 46.9 °F - 17.1 °F 30% 30.04 in 10.0 mi West 15.0 mph 28.8 mph N/A   Clear
6:54 PM 44.1 °F - 19.0 °F 37% 30.06 in 10.0 mi Calm Calm - N/A   Clear
7:54 PM 43.0 °F 40.3 °F 19.0 °F 38% 30.08 in 10.0 mi WSW 4.6 mph - N/A   Clear
8:54 PM 43.0 °F 37.7 °F 19.9 °F 40% 30.09 in 10.0 mi WSW 9.2 mph - N/A   Clear
9:54 PM 42.1 °F 36.6 °F 21.0 °F 43% 30.11 in 10.0 mi WSW 9.2 mph - N/A   Clear
10:54 PM 41.0 °F 36.4 °F 21.9 °F 47% 30.10 in 10.0 mi SW 6.9 mph - N/A   Clear
11:54 PM 41.0 °F 35.2 °F 23.0 °F 49% 30.10 in 10.0 mi WSW 9.2 mph - N/A   Clear